Weather Roundup
Issued by NWS Springfield, MO

Home | Current Version | Previous Version | Text Only | Print | Product List | Glossary On
Versions: 1 2 3 4 5 6 7 8 9 10 11 12 13 14 15 16 17 18 19 20 21 22 23 24 25 26 27 28 29 30 31 32 33 34 35 36 37 38 39 40 41 42 43 44 45 46 47 48 49 50
000
NZUS99 KSGF 271357
HRRSGF

HOURLY WEATHER
NATIONAL WEATHER SERVICE SPRINGFIELD MO
900 AM CDT THU APR 27 2017

......SGF CWA......

CITY           SKY/WX    TMP DP  RH WIND       PRES   REMARKS
SPRINGFIELD    SUNNY     47  40  76 NW6       29.76S
JOPLIN         SUNNY     50  43  77 SW5       29.79R
WEST PLAINS    CLOUDY    47  40  76 NW12      29.77R
ROLLA          CLOUDY    44  40  85 W12       29.73R
BRANSON        MOSUNNY   46  39  76 NW9       29.78S

......SURROUNDING SGF CWA......

CITY           SKY/WX    TMP DP  RH WIND       PRES   REMARKS
CHANUTE        SUNNY     46  40  79 SW3       29.79R
PARSONS        SUNNY     47  41  80 CALM      29.82R
COFFEYVILLE    SUNNY     47  42  83 CALM      29.81R
EMPORIA        SUNNY     44  38  79 NW3       29.76R
HARRISON AR    SUNNY     48  40  73 NW9       29.80R

......KANSAS AND MISSOURI......

CITY           SKY/WX    TMP DP  RH WIND       PRES   REMARKS
KANSAS CTY INT MOSUNNY   47  34  60 W9        29.73R
SEDALIA        CLOUDY    46  37  71 W10G21    29.76R
ST JOSEPH      PTSUNNY   46  36  68 W10       29.73R
ST LOUIS       CLOUDY    48  41  76 W15       29.71R
WICHITA        MOSUNNY   46  38  73 E8        29.77F
TOPEKA         SUNNY     46  35  65 W8        29.76R
OLATHE         SUNNY     45  34  65 W9        29.75R

......TENNESSEE......

CITY           SKY/WX    TMP DP  RH WIND       PRES   REMARKS
MEMPHIS        NOT AVBL
NASHVILLE      PTSUNNY   66  59  78 SW6       29.72R

......ARKANSAS.......

CITY           SKY/WX    TMP DP  RH WIND       PRES   REMARKS
FAYETTEVILLE   MOSUNNY   45  45 100 E3        29.79F
FT SMITH       MOSUNNY   53  45  74 CALM      29.81R
LITTLE ROCK    PTSUNNY   53  46  77 NW6       29.83R

......OKLAHOMA.......

CITY           SKY/WX    TMP DP  RH WIND       PRES   REMARKS
TULSA          PTSUNNY   52  45  77 N3        29.78R
PONCA CITY     CLOUDY    51  42  71 VRB5      29.76S
MCALESTER      MOSUNNY   51  47  86 CALM      29.78S
OKLAHOMA CITY  PTSUNNY   49  45  86 S7        29.74R

......IOWA............

CITY           SKY/WX    TMP DP  RH WIND       PRES   REMARKS
DES MOINES     NOT AVBL
QUAD CITIES    CLOUDY    41  35  79 W16G24    29.58R

......ILLINOIS........

CITY           SKY/WX    TMP DP  RH WIND       PRES   REMARKS
QUINCY         CLOUDY    42  38  85 W12       29.67R
CHICAGO        CLOUDY    47  43  86 W21G33    29.47R



USA.gov is the U.S. government's official web portal to all federal, state and local government web resources and services.